Location: Unspecified
(0.0000°N, 0.0000°E)
Time: 18:54:49
(UTC+00:00)

COSMOS 2416 - Visible Passes

Search period start: 17 May 2026 00:00
Search period end: 27 May 2026 00:00
Orbit: 1437 x 1448 km, 82.5° (Epoch: 17 May)

Date Brightness Start Highest point End Pass type
(mag) Time Alt. Az. Time Alt. Az. Time Alt. Az.
17 May 8.9 05:02:16 10° SE 05:08:46 24° E 05:15:11 10° NE visible
17 May 8.7 19:23:52 10° NW 19:30:08 23° W 19:36:28 10° SW visible
18 May 7.1 18:18:44 10° NNW 18:27:09 68° W 18:35:34 10° S visible
19 May 8.8 04:51:25 10° SE 04:58:03 25° E 05:04:38 10° NE visible
19 May 8.9 19:13:19 10° NW 19:19:25 22° W 19:25:34 10° SW visible
20 May 7.2 18:08:03 10° NNW 18:16:26 66° W 18:24:50 10° S visible
21 May 8.7 04:40:33 10° SSE 04:47:20 26° E 04:54:04 10° NE visible
21 May 9.0 19:02:47 10° NW 19:08:42 21° W 19:14:41 10° SW visible
22 May 6.9 05:31:04 10° S 05:39:37 79° E 05:48:09 10° N visible
23 May 8.5 04:29:42 10° SSE 04:36:38 28° E 04:43:30 10° NE visible
23 May 9.0 18:52:16 10° NW 18:58:00 20° W 19:03:46 10° SW visible
24 May 6.8 05:20:21 10° S 05:28:54 82° E 05:37:27 10° N visible
25 May 8.4 04:18:52 10° SSE 04:25:55 29° E 04:32:55 10° NE visible
25 May 9.0 18:41:46 10° NW 18:47:17 19° W 18:52:51 10° SW visible
26 May 6.8 05:09:37 10° S 05:18:12 85° E 05:26:45 10° N visible
